KF0EZB Weather Reports


Display with metric or nautical units.
time (UTC)temp
F
wind
direction
speed
MPH
gust
MPH
rain 1hr
in
rain 24hr
in
rain mn
in
humidity
%
barometer
mb
20260506062155 44 110 0.0 0.0 0.00 0.03 0.03 95 1016.3
20260506061651 44 94 0.0 2.0 0.00 0.03 0.03 94 1016.0
20260506061148 44 113 0.0 0.0 0.00 0.03 0.03 94 1016.1
20260506060647 44 113 0.0 1.0 0.00 0.03 0.03 94 1016.0
20260506060143 44 112 0.0 0.0 0.00 0.03 0.03 93 1016.3
20260506051115 44 102 0.0 0.0 0.00 0.00 0.00 91 1015.8
20260506050614 44 102 0.0 0.0 0.00 0.00 0.00 91 1015.6
20260506050111 44 101 0.0 0.0 0.00 0.00 0.00 91 1015.2
20260506045104 44 97 1.0 1.0 0.00 0.00 0.00 90 1015.2
20260506044602 44 95 0.0 0.0 0.00 0.00 0.00 90 1015.0
20260506044058 44 84 0.0 2.0 0.00 0.00 0.00 90 1015.4
20260506043556 44 93 1.0 1.0 0.00 0.00 0.00 90 1015.6
20260506043054 44 91 0.0 0.0 0.00 0.00 0.00 89 1014.9
20260506042553 44 88 0.0 0.0 0.00 0.00 0.00 89 1015.1
20260506042050 44 68 0.0 2.0 0.00 0.00 0.00 89 1014.8
20260506041549 44 72 0.0 2.0 0.00 0.00 0.00 89 1014.7
20260506041045 44 82 0.0 2.0 0.00 0.00 0.00 89 1015.0
20260506040543 44 66 1.0 2.0 0.00 0.00 0.00 89 1014.9
20260506040038 44 44 0.0 5.0 0.00 0.00 0.00 89 1015.1
20260506035536 44 95 0.0 3.0 0.00 0.00 0.00 89 1015.0
20260506035033 44 96 0.0 3.0 0.00 0.00 0.00 89 1015.2
20260506034530 44 77 0.0 2.0 0.00 0.00 0.00 89 1015.1
20260506034027 44 91 0.0 2.0 0.00 0.00 0.00 89 1015.2
20260506033524 44 86 0.0 2.0 0.00 0.00 0.00 89 1014.9
20260506033021 44 81 2.0 3.0 0.00 0.00 0.00 89 1014.8
20260506032519 44 59 1.0 3.0 0.00 0.00 0.00 89 1014.9
20260506032015 44 78 1.0 2.0 0.00 0.00 0.00 89 1015.1
20260506031513 44 63 2.0 3.0 0.00 0.00 0.00 88 1015.1
20260506031009 44 79 0.0 2.0 0.00 0.00 0.00 88 1014.9
20260506030508 44 74 0.0 2.0 0.00 0.00 0.00 88 1015.0
20260506030005 44 62 1.0 2.0 0.00 0.00 0.00 88 1014.7
20260506025501 44 59 0.0 0.0 0.00 0.00 0.00 88 1014.9
20260506024957 44 50 0.0 0.0 0.00 0.00 0.00 88 1015.0
20260506024454 44 74 1.0 1.0 0.00 0.00 0.00 87 1015.0
20260506023950 44 71 0.0 1.0 0.00 0.00 0.00 87 1014.6
20260506023447 44 67 0.0 2.0 0.00 0.00 0.00 87 1014.7
20260506022944 44 54 1.0 3.0 0.00 0.00 0.00 87 1014.6
20260506022442 44 47 0.0 3.0 0.00 0.00 0.00 87 1014.5
20260506021940 44 336 1.0 2.0 0.00 0.00 0.00 87 1014.6
20260506021436 44 68 1.0 6.0 0.00 0.00 0.00 87 1014.4
20260506020933 44 23 1.0 5.0 0.00 0.00 0.00 87 1014.0
20260506020431 44 35 0.0 5.0 0.00 0.00 0.00 86 1014.1
20260506015928 44 43 0.0 5.0 0.00 0.00 0.00 86 1014.0
20260506015426 44 61 0.0 6.0 0.00 0.00 0.00 85 1014.3
20260506014922 44 18 1.0 8.0 0.00 0.00 0.00 85 1013.9
20260506014420 44 291 0.0 3.0 0.00 0.00 0.00 84 1014.0
20260506013916 44 62 0.0 5.0 0.00 0.00 0.00 83 1014.2
20260506013414 44 68 1.0 5.0 0.00 0.00 0.00 83 1014.2
20260506012910 44 100 0.0 8.0 0.00 0.00 0.00 82 1014.2
20260506012407 44 48 0.0 3.0 0.00 0.00 0.00 81 1014.3
20260506011904 45 93 1.0 2.0 0.00 0.00 0.00 80 1014.1
20260506011401 45 118 0.0 2.0 0.00 0.00 0.00 79 1014.1
20260506010858 46 53 5.0 7.0 0.00 0.00 0.00 78 1014.0
20260506010356 46 74 0.0 1.0 0.00 0.00 0.00 77 1014.1
20260506005853 47 84 1.0 2.0 0.00 0.00 0.00 77 1014.2
20260506005350 47 33 0.0 1.0 0.00 0.00 0.00 76 1014.3
20260506004845 47 84 0.0 1.0 0.00 0.00 0.00 75 1014.1
20260506004343 47 75 0.0 0.0 0.00 0.00 0.00 74 1013.9
20260506003839 48 55 1.0 2.0 0.00 0.00 0.00 72 1013.9
20260506003335 48 83 0.0 1.0 0.00 0.00 0.00 70 1014.1
20260506002832 48 77 0.0 2.0 0.00 0.00 0.00 69 1013.9
20260506002329 48 78 0.0 1.0 0.00 0.00 0.00 68 1013.9
20260506001824 48 63 0.0 5.0 0.00 0.00 0.00 67 1013.7
20260506001321 49 30 0.0 2.0 0.00 0.00 0.00 67 1013.7
20260506000818 49 35 2.0 3.0 0.00 0.00 0.00 66 1013.5
20260506000316 49 51 0.0 3.0 0.00 0.00 0.00 65 1013.0
20260505235812 49 167 0.0 2.0 0.00 0.00 0.00 64 1013.1
20260505235310 50 50 0.0 5.0 0.00 0.00 0.00 61 1013.0
20260505234807 50 56 3.0 6.0 0.00 0.00 0.00 60 1012.8
20260505234305 50 170 1.0 5.0 0.00 0.00 0.00 61 1012.8
20260505233802 50 57 0.0 0.0 0.00 0.00 0.00 61 1012.7
20260505233259 50 13 2.0 5.0 0.00 0.00 0.00 61 1012.9
20260505232756 50 49 3.0 5.0 0.00 0.00 0.00 61 1012.5
20260505232254 50 60 1.0 6.0 0.00 0.00 0.00 61 1012.6
20260505231750 50 79 1.0 6.0 0.00 0.00 0.00 62 1012.5
20260505231249 50 61 1.0 7.0 0.00 0.00 0.00 61 1012.7
20260505230747 50 59 3.0 6.0 0.00 0.00 0.00 61 1012.5
20260505230243 50 119 3.0 8.0 0.00 0.00 0.00 61 1012.3
20260505225740 50 92 0.0 3.0 0.00 0.00 0.00 64 1012.0
20260505225237 51 45 4.0 8.0 0.00 0.00 0.00 62 1012.4
20260505224732 51 48 4.0 8.0 0.00 0.00 0.00 58 1012.2
20260505224230 52 44 3.0 7.0 0.00 0.00 0.00 57 1012.2
20260505223727 52 47 4.0 6.0 0.00 0.00 0.00 57 1012.4
20260505223224 52 114 6.0 9.0 0.00 0.00 0.00 57 1012.3
20260505222720 53 31 1.0 6.0 0.00 0.00 0.00 57 1012.4
20260505222216 52 49 2.0 6.0 0.00 0.00 0.00 57 1012.2
20260505221713 53 51 5.0 9.0 0.00 0.00 0.00 56 1012.4
20260505221210 53 97 1.0 10.0 0.00 0.00 0.00 58 1012.3
20260505220707 53 26 2.0 9.0 0.00 0.00 0.00 57 1012.0
20260505220205 53 58 1.0 5.0 0.00 0.00 0.00 55 1012.3
20260505215702 53 43 1.0 6.0 0.00 0.00 0.00 55 1012.2
20260505215200 54 65 4.0 8.0 0.00 0.00 0.00 54 1012.0
20260505214657 55 38 3.0 10.0 0.00 0.00 0.00 52 1012.2
20260505214154 54 106 3.0 8.0 0.00 0.00 0.00 52 1012.3
20260505213652 53 50 8.0 10.0 0.00 0.00 0.00 51 1012.5
20260505213149 54 40 3.0 15.0 0.00 0.00 0.00 51 1012.6
20260505212644 54 44 5.0 7.0 0.00 0.00 0.00 50 1012.6
20260505212142 54 73 2.0 9.0 0.00 0.00 0.00 51 1012.6
20260505211639 53 56 6.0 11.0 0.00 0.00 0.00 51 1012.6
20260505211136 54 93 1.0 7.0 0.00 0.00 0.00 52 1012.7
20260505210633 54 23 4.0 8.0 0.00 0.00 0.00 52 1012.5
20260505210130 53 47 1.0 7.0 0.00 0.00 0.00 53 1012.4
20260505205627 53 42 5.0 9.0 0.00 0.00 0.00 53 1012.8
20260505205125 53 16 1.0 13.0 0.00 0.00 0.00 54 1012.9
20260505204622 53 80 1.0 3.0 0.00 0.00 0.00 53 1012.6
20260505204119 53 56 5.0 11.0 0.00 0.00 0.00 52 1012.6
20260505203616 53 70 3.0 9.0 0.00 0.00 0.00 53 1012.7
20260505203113 55 79 6.0 14.0 0.00 0.00 0.00 52 1012.6
20260505202609 54 59 3.0 14.0 0.00 0.00 0.00 53 1012.5
20260505202105 55 95 6.0 10.0 0.00 0.00 0.00 52 1012.7
20260505201601 55 55 6.0 9.0 0.00 0.00 0.00 52 1012.6
20260505201100 56 68 2.0 11.0 0.00 0.00 0.00 51 1012.8
20260505200557 56 59 1.0 10.0 0.00 0.00 0.00 52 1012.6
20260505200054 56 39 8.0 14.0 0.00 0.00 0.00 51 1012.8
20260505195550 56 33 5.0 7.0 0.00 0.00 0.00 52 1012.9
20260505195048 57 71 5.0 9.0 0.00 0.00 0.00 52 1013.1
20260505194545 56 96 5.0 9.0 0.00 0.00 0.00 52 1012.9
20260505194040 57 44 7.0 9.0 0.00 0.00 0.00 50 1012.8
20260505193537 57 110 1.0 6.0 0.00 0.00 0.00 51 1013.1
20260505193035 59 53 5.0 9.0 0.00 0.00 0.00 49 1012.9
20260505192533 58 52 2.0 13.0 0.00 0.00 0.00 50 1012.9
20260505192030 56 75 1.0 8.0 0.00 0.00 0.00 50 1012.7
20260505191528 58 59 6.0 13.0 0.00 0.00 0.00 48 1012.8
20260505191026 58 99 1.0 7.0 0.00 0.00 0.00 49 1012.9
20260505190520 57 32 3.0 14.0 0.00 0.00 0.00 50 1012.8
20260505190017 57 29 7.0 14.0 0.00 0.00 0.00 49 1012.5
20260505185514 56 80 9.0 11.0 0.00 0.00 0.00 50 1012.4
20260505185010 57 86 8.0 10.0 0.00 0.00 0.00 50 1012.3
20260505184507 58 102 2.0 7.0 0.00 0.00 0.00 49 1012.4
20260505184004 57 36 5.0 8.0 0.00 0.00 0.00 50 1012.4
20260505183501 57 59 6.0 14.0 0.00 0.00 0.00 49 1012.4
20260505182957 56 38 4.0 13.0 0.00 0.00 0.00 51 1012.5
20260505182454 57 47 2.0 7.0 0.00 0.00 0.00 51 1012.3
20260505181950 57 49 6.0 13.0 0.00 0.00 0.00 50 1012.7
20260505181448 58 67 7.0 11.0 0.00 0.00 0.00 48 1012.7
20260505180945 56 58 8.0 14.0 0.00 0.00 0.00 49 1012.8
20260505180441 56 56 5.0 9.0 0.00 0.00 0.00 51 1013.0
20260505175938 57 60 6.0 10.0 0.00 0.00 0.00 50 1013.0
20260505175434 56 58 9.0 13.0 0.00 0.00 0.00 51 1012.8
20260505174930 56 133 6.0 15.0 0.00 0.00 0.00 52 1013.1
20260505174428 56 100 6.0 18.0 0.00 0.00 0.00 54 1013.0
20260505173924 55 87 3.0 9.0 0.00 0.00 0.00 55 1013.0
20260505173420 54 96 7.0 9.0 0.00 0.00 0.00 55 1013.2
20260505172918 54 70 3.0 15.0 0.00 0.00 0.00 55 1013.3
20260505172416 54 109 4.0 11.0 0.00 0.00 0.00 55 1013.2
20260505171915 54 67 7.0 11.0 0.00 0.00 0.00 55 1013.1
20260505171412 55 148 5.0 14.0 0.00 0.00 0.00 54 1012.9
20260505170909 54 58 5.0 17.0 0.00 0.00 0.00 54 1013.2
20260505170405 54 78 11.0 17.0 0.00 0.00 0.00 54 1013.1
20260505165901 54 40 6.0 8.0 0.00 0.00 0.00 55 1012.9
20260505165356 53 77 6.0 11.0 0.00 0.00 0.00 55 1013.1
20260505164852 54 78 6.0 13.0 0.00 0.00 0.00 56 1012.8
20260505164349 53 86 9.0 17.0 0.00 0.00 0.00 56 1012.7
20260505163847 53 63 5.0 15.0 0.00 0.00 0.00 56 1012.8
20260505163346 53 74 7.0 15.0 0.00 0.00 0.00 56 1012.9
20260505162844 53 50 2.0 14.0 0.00 0.00 0.00 56 1012.8
20260505162340 53 66 11.0 16.0 0.00 0.00 0.00 55 1012.6
20260505161837 53 66 6.0 16.0 0.00 0.00 0.00 55 1012.9
20260505161334 53 85 11.0 20.0 0.00 0.00 0.00 56 1013.0
20260505160831 52 52 2.0 16.0 0.00 0.00 0.00 57 1013.0
20260505160330 51 116 11.0 16.0 0.00 0.00 0.00 57 1013.0
20260505153308 51 69 7.0 10.0 0.00 0.00 0.00 57 1012.8
20260505152805 52 100 5.0 10.0 0.00 0.00 0.00 56 1012.8
20260505152305 51 51 8.0 16.0 0.00 0.00 0.00 56 1012.8
20260505151756 51 66 8.0 14.0 0.00 0.00 0.00 56 1012.8
20260505151254 51 63 3.0 11.0 0.00 0.00 0.00 57 1012.9
20260505150750 51 38 9.0 16.0 0.00 0.00 0.00 56 1012.6
20260505150247 51 39 8.0 13.0 0.00 0.00 0.00 56 1012.7
20260505140212 50 78 2.0 10.0 0.00 0.00 0.00 57 1012.4
20260505130136 50 99 11.0 16.0 0.00 0.00 0.00 58 1010.5
20260505124625 50 115 6.0 9.0 0.00 0.00 0.00 58 1010.3
20260505124122 50 61 6.0 16.0 0.00 0.00 0.00 58 1010.2
20260505123617 50 26 7.0 11.0 0.00 0.00 0.00 58 1010.0
20260505123114 50 61 7.0 13.0 0.00 0.00 0.00 58 1009.8
20260505122611 50 102 4.0 17.0 0.00 0.00 0.00 58 1009.8
20260505122109 50 82 5.0 14.0 0.00 0.00 0.00 58 1009.8
20260505121605 50 54 2.0 16.0 0.00 0.00 0.00 58 1009.6
20260505121102 50 77 9.0 14.0 0.00 0.00 0.00 58 1009.3
20260505120558 50 85 2.0 13.0 0.00 0.00 0.00 58 1009.7
20260505120054 50 60 4.0 14.0 0.00 0.00 0.00 58 1009.5
20260505115549 50 44 5.0 18.0 0.00 0.00 0.00 57 1009.4
20260505115046 50 50 6.0 13.0 0.00 0.00 0.00 57 1009.2
20260505114543 51 58 1.0 5.0 0.00 0.00 0.00 57 1009.6
20260505114039 51 60 3.0 11.0 0.00 0.00 0.00 56 1009.6
20260505113536 51 54 8.0 13.0 0.00 0.00 0.00 56 1009.4
20260505113032 51 88 2.0 7.0 0.00 0.00 0.00 55 1009.3
20260505112528 51 69 5.0 10.0 0.00 0.00 0.00 55 1009.4
20260505112026 51 66 4.0 9.0 0.00 0.00 0.00 55 1009.1
20260505111520 51 56 6.0 15.0 0.00 0.00 0.00 54 1009.2
20260505111017 51 57 5.0 17.0 0.00 0.00 0.00 53 1009.2
20260505110514 51 74 4.0 14.0 0.00 0.00 0.00 53 1009.0
20260505101945 52 31 5.0 9.0 0.00 0.00 0.00 50 1008.3
20260505101438 52 43 3.0 15.0 0.00 0.00 0.00 51 1008.2
20260505100934 52 113 4.0 10.0 0.00 0.00 0.00 51 1008.0
20260505100432 52 106 6.0 14.0 0.00 0.00 0.00 51 1007.8
20260505095927 53 106 7.0 20.0 0.00 0.00 0.00 51 1008.1
20260505095425 53 32 3.0 9.0 0.00 0.00 0.00 51 1008.0
20260505094920 53 40 6.0 15.0 0.00 0.00 0.00 51 1008.0
20260505094418 53 53 6.0 13.0 0.00 0.00 0.00 52 1008.0
20260505093914 53 69 2.0 7.0 0.00 0.00 0.00 52 1007.9
20260505093411 53 38 4.0 11.0 0.00 0.00 0.00 53 1007.6
20260505092908 53 35 7.0 14.0 0.00 0.00 0.00 52 1007.4
20260505092406 53 75 3.0 9.0 0.00 0.00 0.00 52 1007.3
20260505091903 53 39 7.0 13.0 0.00 0.00 0.00 52 1007.0
20260505091401 53 70 9.0 14.0 0.00 0.00 0.00 51 1007.2
20260505090858 53 49 7.0 11.0 0.00 0.00 0.00 51 1007.0
20260505090356 53 38 8.0 16.0 0.00 0.00 0.00 51 1007.0
20260505085853 54 48 9.0 17.0 0.00 0.00 0.00 50 1006.9
20260505085351 54 86 10.0 16.0 0.00 0.00 0.00 50 1006.8
20260505084849 54 56 4.0 8.0 0.00 0.00 0.00 50 1006.8
20260505084347 54 85 4.0 17.0 0.00 0.00 0.00 50 1007.1
20260505083845 54 128 4.0 11.0 0.00 0.00 0.00 50 1006.9
20260505083342 55 35 7.0 13.0 0.00 0.00 0.00 50 1006.5
20260505082838 55 29 3.0 17.0 0.00 0.00 0.00 50 1006.5
20260505082334 55 129 3.0 14.0 0.00 0.00 0.00 49 1006.4
20260505081831 55 32 3.0 11.0 0.00 0.00 0.00 49 1006.1
20260505081328 55 58 9.0 21.0 0.00 0.00 0.00 49 1006.0
20260505080825 55 112 7.0 16.0 0.00 0.00 0.00 49 1005.9
20260505080320 55 29 14.0 21.0 0.00 0.00 0.00 48 1005.9
20260505075816 55 126 5.0 14.0 0.00 0.00 0.00 48 1006.1
20260505075313 56 45 4.0 11.0 0.00 0.00 0.00 48 1006.0
20260505074810 56 61 4.0 16.0 0.00 0.00 0.00 47 1005.9
20260505074308 56 57 8.0 15.0 0.00 0.00 0.00 47 1006.0
20260505073805 56 26 11.0 20.0 0.00 0.00 0.00 46 1005.9
20260505073303 56 89 3.0 14.0 0.00 0.00 0.00 47 1005.8
20260505072800 56 44 10.0 15.0 0.00 0.00 0.00 47 1006.0
20260505072255 57 18 6.0 11.0 0.00 0.00 0.00 47 1006.1
20260505071751 57 57 5.0 11.0 0.00 0.00 0.00 47 1006.0
20260505071248 57 155 6.0 13.0 0.00 0.00 0.00 47 1006.0
20260505070746 57 61 5.0 16.0 0.00 0.00 0.00 48 1005.9
20260505070242 57 87 8.0 17.0 0.00 0.00 0.00 49 1005.9
20260505065738 57 300 4.0 10.0 0.00 0.00 0.00 50 1005.9
20260505065235 57 47 3.0 7.0 0.00 0.00 0.00 49 1005.7
20260505064732 58 73 2.0 9.0 0.00 0.00 0.00 48 1005.3
20260505064229 60 48 1.0 7.0 0.00 0.00 0.00 46 1005.3
20260505063727 60 51 3.0 9.0 0.00 0.00 0.00 44 1005.2
20260505063223 61 52 5.0 9.0 0.00 0.00 0.00 44 1005.5
20260505062719 61 50 2.0 11.0 0.00 0.00 0.00 43 1005.5